Simultaneous Nadir Overpasses (SNOs) Predictions

Prediction of SNOs between TERRA and METOP-C Satellite Orbit:

Table of predicted SNOs for the next 14.0 days since TLE Epoch: 12/23/2023
Index Date (TERRA) Time (TERRA) Lat,Lon (TERRA) SZA (TERRA ) Date (METOP-C) Time (METOP-C) Lat,Lon (METOP-C) SZA (METOP-C ) Distance(km) Time Diff (sec)
1 12/24/2023 07:55:32 79.96, 83.15 104.02 12/24/2023 07:54:26 79.95, 83.09 104.00 1.17 66
2 12/24/2023 08:44:49 -80.12,-107.91 75.75 12/24/2023 08:45:01 -80.11,-107.95 75.76 0.84 12
3 12/26/2023 23:16:20 -79.95, 32.87 76.09 12/26/2023 23:15:25 -79.94, 32.73 76.11 2.79 55
4 12/27/2023 00:05:37 80.12,-158.08 104.17 12/27/2023 00:06:00 80.12,-158.07 104.17 0.26 23
5 12/29/2023 14:37:08 79.97, -17.24 103.79 12/29/2023 14:36:25 79.96, -17.39 103.76 3.05 43
6 12/29/2023 15:26:25 -80.13, 151.73 75.98 12/29/2023 15:26:59 -80.14, 151.86 75.95 2.85 34
7 01/01/2024 05:57:55 -79.99, -67.32 76.39 01/01/2024 05:57:24 -79.97, -67.45 76.41 2.84 31
8 01/01/2024 06:47:12 80.15, 101.68 103.85 01/01/2024 06:47:59 80.15, 101.76 103.87 1.45 47
9 01/03/2024 21:18:41 80.01,-117.33 103.40 01/03/2024 21:18:23 80.02,-117.28 103.41 0.96 18



Historial Predications of SNOs between TERRA and METOP-C
